"2010-02-02 00:00:00",1644759,13.06,312,3.542,0.599,7.948,101.1197,2.156,3.544,25.58,0,109.8,13.46,2.92,274.0
"2010-02-02 00:00:30",1644760,12.48,312.8,3.739,0.631,8.05,101.1194,2.155,3.524,25.61,0,109.8,13.46,2.92,274.8
"2010-02-02 00:01:00",1644761,12.42,312,3.075,0.53,7.785,101.1217,2.161,3.518,25.69,0,109.8,13.46,2.92,274.0
"2010-02-02 00:01:30",1644762,12.29,310.4,3.879,0.596,7.704,101.1237,2.166,3.515,26.03,0,109.8,13.47,2.93,272.4
"2010-02-02 00:02:00",1644763,11.76,311.9,3.352,0.67,7.748,101.1265,2.174,3.501,25.86,0,109.8,13.47,2.93,273.9
"2010-02-02 00:02:30",1644764,11.54,309.8,3.897,0.608,7.728,101.1277,2.177,3.503,25.69,0,109.8,13.47,2.94,271.8
"2010-02-02 00:03:00",1644765,11.46,309.8,3.569,0.496,7.613,101.1198,2.156,3.472,25.75,0,109.8,13.47,2.92,271.8
"2010-02-02 00:03:30",1644766,10.81,310.1,4.946,0.588,7.633,101.1068,2.123,3.486,25.8,0,109.8,13.47,2.88,272.1
"2010-02-02 00:04:00",1644767,10.88,312.3,3.899,0.651,7.391,101.1023,2.112,3.464,25.88,0,109.8,13.47,2.87,274.3
"2010-02-02 00:04:30",1644768,11.63,313.2,3.808,0.691,7.33,101.1012,2.109,3.476,25.93,0,109.8,13.47,2.87,275.2
"2010-02-02 00:05:00",1644769,11.75,310.5,3.688,0.501,7.333,101.1052,2.119,3.455,25.9,0,109.8,13.47,2.88,272.5
"2010-02-02 00:05:30",1644770,11.91,313.6,3.249,0.695,7.152,101.1092,2.129,3.46,25.96,0,109.8,13.47,2.89,275.6
"2010-02-02 00:06:00",1644771,12.19,313,3.689,0.726,7.216,101.1106,2.133,3.442,25.91,0,109.8,13.48,2.89,275.0
"2010-02-02 00:06:30",1644772,13.11,310.3,3.763,0.574,7.495,101.1118,2.136,3.431,25.87,0,109.8,13.48,2.90,272.3
"2010-02-02 00:07:00",1644773,12.57,309,3.792,0.723,7.475,101.1078,2.126,3.43,25.81,0,109.7,13.48,2.89,271.0
"2010-02-02 00:07:30",1644774,12.14,307.6,4.531,0.533,7.554,101.0965,2.097,3.429,25.8,0,109.8,13.48,2.86,269.6
"2010-02-02 00:08:00",1644775,11.93,310.6,4.093,0.706,7.413,101.0931,2.088,3.4,25.88,0,109.8,13.48,2.85,272.6
"2010-02-02 00:08:30",1644776,11.97,309.2,5.657,0.606,7.521,101.0863,2.071,3.406,26.01,0,109.8,13.48,2.83,271.2
"2010-02-02 00:09:00",1644777,12.31,306.1,3.946,0.616,7.486,101.081,2.057,3.402,25.99,0,109.8,13.48,2.82,268.1
"2010-02-02 00:09:30",1644778,11.89,306.1,4.635,0.558,7.402,101.081,2.057,3.38,26.08,0,109.8,13.48,2.82,268.1
"2010-02-02 00:10:00",1644779,12.14,308.9,4.371,0.562,7.302,101.0844,2.066,3.376,26.22,0,109.8,13.48,2.83,270.9
"2010-02-02 00:10:30",1644780,12.12,311.3,4.078,0.437,7.4,101.0856,2.069,3.363,26.38,0,109.7,13.49,2.83,273.3
"2010-02-02 00:11:00",1644781,12.14,315.4,3.058,0.598,7.3,101.0776,2.049,3.353,26.48,0,109.7,13.49,2.81,277.4
"2010-02-02 00:11:30",1644782,12.76,314,4.35,0.809,7.388,101.0663,2.02,3.352,26.58,0,109.7,13.49,2.78,276.0
"2010-02-02 00:12:00",1644783,13.21,316.5,3.372,0.71,7.295,101.0536,1.988,3.335,26.84,0,109.7,13.48,2.75,278.5
"2010-02-02 00:12:30",1644784,12.84,317.3,3.829,0.704,7.583,101.0519,1.983,3.322,26.97,0,109.7,13.48,2.74,279.3
"2010-02-02 00:13:00",1644785,12.74,315.9,3.45,0.624,7.521,101.0519,1.983,3.314,27.07,0,109.7,13.48,2.74,277.9
"2010-02-02 00:13:30",1644786,12.19,312.2,4.191,0.56,7.655,101.0505,1.98,3.29,26.92,0,109.7,13.48,2.74,274.2
"2010-02-02 00:14:00",1644787,11.84,311.8,4.023,0.598,7.587,101.0361,1.943,3.295,26.83,0,109.7,13.48,2.70,273.8
"2010-02-02 00:14:30",1644788,11.98,311.6,4.407,0.637,7.646,101.0293,1.926,3.278,26.88,0,109.7,13.48,2.68,273.6
"2010-02-02 00:15:00",1644789,12.58,312.2,3.425,0.666,7.403,101.02,1.902,3.269,26.98,0,109.7,13.48,2.66,274.2
"2010-02-02 00:15:30",1644790,12.74,312.8,4.062,0.64,7.41,101.018,1.897,3.267,27.15,0,109.7,13.48,2.66,274.8
"2010-02-02 00:16:00",1644791,13.25,313.3,3.979,0.656,7.571,101.0174,1.895,3.253,26.96,0,109.7,13.48,2.65,275.3
"2010-02-02 00:16:30",1644792,13.51,313.4,4.095,0.603,7.742,101.0061,1.866,3.236,26.86,0,109.7,13.49,2.62,275.4
"2010-02-02 00:17:00",1644793,13.9,316.6,4.058,0.576,7.69,100.9877,1.819,3.228,27.05,0,109.6,13.49,2.58,278.6
"2010-02-02 00:17:30",1644794,14,315.2,3.682,0.638,7.585,100.984,1.81,3.207,27.21,0,109.7,13.49,2.57,277.2
"2010-02-02 00:18:00",1644795,13.41,317.5,4.226,0.588,7.642,100.9846,1.812,3.197,27.16,0,109.7,13.49,2.57,279.5
"2010-02-02 00:18:30",1644796,13.45,316.6,4.477,0.75,7.712,100.9861,1.815,3.18,27.41,0,109.7,13.49,2.57,278.6
"2010-02-02 00:19:00",1644797,13.15,315.3,3.909,0.467,7.912,100.9858,1.815,3.157,27.46,0,109.7,13.49,2.57,277.3
"2010-02-02 00:19:30",1644798,13.23,313.1,4.121,0.572,7.954,100.9751,1.787,3.163,27.25,0,109.7,13.5,2.55,275.1
"2010-02-02 00:20:00",1644799,13.23,315.2,4.593,0.601,7.836,100.9641,1.759,3.151,27.08,0,109.7,13.5,2.52,277.2
"2010-02-02 00:20:30",1644800,13.35,316.5,4.46,0.586,7.994,100.9595,1.748,3.14,27.16,0,109.7,13.5,2.51,278.5
"2010-02-02 00:21:00",1644801,13.85,319,4.186,0.561,7.875,100.9644,1.76,3.124,27.28,0,109.7,13.5,2.52,281.0
"2010-02-02 00:21:30",1644802,13.7,317.6,4.384,0.584,7.752,100.9701,1.775,3.12,27.58,0,109.7,13.5,2.53,279.6
"2010-02-02 00:22:00",1644803,13.26,315,4.118,0.8,7.717,100.9724,1.78,3.092,27.76,0,109.7,13.5,2.54,277.0
"2010-02-02 00:22:30",1644804,12.88,312.2,4.389,0.418,7.967,100.9682,1.77,3.091,27.67,0,109.7,13.5,2.53,274.2
"2010-02-02 00:23:00",1644805,13.44,313,3.402,0.623,7.775,100.956,1.739,3.082,27.47,0,109.7,13.5,2.50,275.0
"2010-02-02 00:23:30",1644806,13.91,314.4,4.898,0.73,7.8,100.9439,1.708,3.074,27.39,0,109.7,13.5,2.47,276.4
"2010-02-02 00:24:00",1644807,14.26,317.5,4.37,0.629,7.754,100.9427,1.705,3.061,27.56,0,109.7,13.5,2.46,279.5
"2010-02-02 00:24:30",1644808,13.47,315,5.075,0.635,8.02,100.9439,1.708,3.076,27.71,0,109.7,13.5,2.47,277.0
"2010-02-02 00:25:00",1644809,14.22,320.5,3.995,0.521,7.671,100.9462,1.713,3.028,27.85,0,109.7,13.5,2.47,282.5
"2010-02-02 00:25:30",1644810,14.76,320.2,3.903,0.651,8.01,100.9453,1.711,3.036,27.78,0,109.7,13.5,2.47,282.2
"2010-02-02 00:26:00",1644811,14.55,321.1,3.492,0.75,7.89,100.9318,1.677,2.997,27.87,0,109.7,13.5,2.43,283.1
"2010-02-02 00:26:30",1644812,14.39,320.1,4.24,0.574,8.1,100.9219,1.651,3.008,27.77,0,109.7,13.5,2.41,282.1
"2010-02-02 00:27:00",1644813,14.21,318.4,4.549,0.559,8.26,100.9179,1.641,3.002,27.65,0,109.7,13.5,2.40,280.4
"2010-02-02 00:27:30",1644814,14.19,319.7,4.656,0.761,8.21,100.9165,1.638,2.992,27.68,0,109.7,13.5,2.40,281.7
"2010-02-02 00:28:00",1644815,15.04,318.8,4.373,0.703,8.4,100.9165,1.638,2.977,27.38,0,109.7,13.5,2.40,280.8
"2010-02-02 00:28:30",1644816,14.13,318.3,4.198,0.651,8.46,100.9165,1.638,2.974,27.2,0,109.7,13.5,2.40,280.3
"2010-02-02 00:29:00",1644817,13.95,321,3.88,0.633,8.31,100.9165,1.638,2.986,27.11,0,109.6,13.5,2.40,283.0
"2010-02-02 00:29:30",1644818,13.85,321.1,4.397,0.534,8.07,100.9165,1.638,2.969,27.24,0,109.7,13.5,2.40,283.1
"2010-02-02 00:30:00",1644819,14.7,323,4.046,0.57,8.2,100.9165,1.638,2.957,27.35,0,109.7,13.5,2.40,285.0
"2010-02-02 00:30:30",1644820,14.69,324.2,3.505,0.752,8.29,100.9165,1.638,2.938,27.28,0,109.7,13.5,2.40,286.2
"2010-02-02 00:31:00",1644821,14.18,322.7,3.265,0.566,7.947,100.9165,1.638,2.934,27.68,0,109.6,13.5,2.40,284.7
"2010-02-02 00:31:30",1644822,13.93,319.9,3.365,0.679,8.21,100.9165,1.638,2.951,27.58,0,109.7,13.5,2.40,281.9
"2010-02-02 00:32:00",1644823,13.83,318.4,4.693,0.612,8.2,100.9165,1.638,2.932,27.13,0,109.7,13.5,2.40,280.4
"2010-02-02 00:32:30",1644824,13.74,316.3,4.549,0.61,8.25,100.9165,1.638,2.937,27.31,0,109.7,13.5,2.40,278.3
"2010-02-02 00:33:00",1644825,13.63,316.9,4.102,0.507,8.04,100.9165,1.638,2.935,27.24,0,109.7,13.5,2.40,278.9
"2010-02-02 00:33:30",1644826,13.51,318.5,4.946,0.598,7.928,100.9162,1.637,2.943,27.35,0,109.7,13.51,2.39,280.5
"2010-02-02 00:34:00",1644827,13.68,320.6,4.45,0.628,7.949,100.9145,1.633,2.936,27.56,0,109.7,13.51,2.39,282.6
"2010-02-02 00:34:30",1644828,13.99,318.4,4.501,0.632,7.935,100.9111,1.624,2.944,27.67,0,109.7,13.52,2.38,280.4
"2010-02-02 00:35:00",1644829,14.6,320.1,3.813,0.43,8.22,100.9032,1.604,2.932,27.52,0,109.7,13.52,2.36,282.1
"2010-02-02 00:35:30",1644830,14.73,320.2,4.289,0.603,8.24,100.8967,1.587,2.927,27.14,0,109.7,13.52,2.34,282.2
"2010-02-02 00:36:00",1644831,14.88,320.3,4.333,0.572,8.15,100.8913,1.574,2.918,27.33,0,109.7,13.52,2.33,282.3
"2010-02-02 00:36:30",1644832,14.74,320.9,4.364,0.612,8.39,100.8865,1.561,2.933,27.53,0,109.7,13.52,2.32,282.9
"2010-02-02 00:37:00",1644833,15.16,322.6,3.748,0.513,8.25,100.8837,1.554,2.929,27.44,0,109.6,13.52,2.31,284.6
"2010-02-02 00:37:30",1644834,14.93,321.5,3.784,0.649,8.22,100.8831,1.553,2.929,27.66,0,109.7,13.52,2.31,283.5
"2010-02-02 00:38:00",1644835,14.99,320.9,4.285,0.58,8.3,100.8828,1.552,2.923,27.57,0,109.7,13.52,2.31,282.9
"2010-02-02 00:38:30",1644836,14.79,319.6,3.81,0.573,8.43,100.8848,1.557,2.919,27.53,0,109.7,13.52,2.31,281.6
"2010-02-02 00:39:00",1644837,14.49,321.1,3.198,0.551,8.3,100.8848,1.557,2.907,27.48,0,109.6,13.52,2.31,283.1
"2010-02-02 00:39:30",1644838,14.36,321.5,4.396,0.572,8.14,100.8883,1.566,2.919,27.59,0,109.6,13.52,2.32,283.5
"2010-02-02 00:40:00",1644839,14.83,319.9,4.207,0.578,8.24,100.8885,1.566,2.918,27.71,0,109.6,13.52,2.32,281.9
"2010-02-02 00:40:30",1644840,14.71,319.7,3.945,0.522,8.36,100.8925,1.577,2.89,27.55,0,109.7,13.52,2.33,281.7
"2010-02-02 00:41:00",1644841,14.86,320.7,3.811,0.391,8.55,100.8925,1.577,2.911,27.39,0,109.6,13.52,2.33,282.7
"2010-02-02 00:41:30",1644842,14.9,321.5,3.23,0.681,8.16,100.8962,1.586,2.91,27.41,0,109.6,13.52,2.34,283.5
"2010-02-02 00:42:00",1644843,15.1,321.4,3.431,0.658,8.19,100.8971,1.588,2.903,27.43,0,109.6,13.52,2.35,283.4
"2010-02-02 00:42:30",1644844,15.33,323.3,3.321,0.689,8.26,100.8985,1.592,2.884,27.5,0,109.6,13.52,2.35,285.3
"2010-02-02 00:43:00",1644845,15.16,324.2,2.787,0.669,8.2,100.9,1.596,2.894,27.59,0,109.6,13.52,2.35,286.2
"2010-02-02 00:43:30",1644846,15.4,323.7,3.364,0.696,8.25,100.9008,1.598,2.897,27.66,0,109.6,13.52,2.36,285.7
"2010-02-02 00:44:00",1644847,15.12,321.7,4.295,0.57,8.39,100.9014,1.599,2.893,27.41,0,109.6,13.52,2.36,283.7
"2010-02-02 00:44:30",1644848,14.92,321.3,4.394,0.567,8.66,100.9017,1.6,2.91,27.25,0,109.6,13.52,2.36,283.3
"2010-02-02 00:45:00",1644849,15.4,319,3.801,0.538,8.49,100.9037,1.605,2.896,27.3,0,109.6,13.52,2.36,281.0
"2010-02-02 00:45:30",1644850,14.91,318.5,4.336,0.545,8.43,100.9074,1.615,2.908,27.35,0,109.6,13.52,2.37,280.5
"2010-02-02 00:46:00",1644851,14.57,318,3.895,0.574,8.44,100.9071,1.614,2.895,27.42,0,109.6,13.52,2.37,280.0
"2010-02-02 00:46:30",1644852,14.77,319.1,3.944,0.674,8.33,100.9074,1.615,2.912,27.2,0,109.6,13.52,2.37,281.1
"2010-02-02 00:47:00",1644853,15.58,319.6,3.928,0.406,8.55,100.9108,1.623,2.909,27.37,0,109.6,13.52,2.38,281.6
"2010-02-02 00:47:30",1644854,15.3,317.3,3.72,0.529,8.25,100.91,1.621,2.912,27.51,0,109.6,13.52,2.38,279.3
"2010-02-02 00:48:00",1644855,14.97,316.8,4.245,0.595,8.29,100.9094,1.62,2.902,27.45,0,109.6,13.52,2.38,278.8
"2010-02-02 00:48:30",1644856,15.61,316,3.981,0.716,8.28,100.9094,1.62,2.898,27.29,0,109.6,13.52,2.38,278.0
"2010-02-02 00:49:00",1644857,15.47,316.1,4.045,0.428,8.5,100.91,1.621,2.91,27.29,0,109.5,13.52,2.38,278.1
"2010-02-02 00:49:30",1644858,15.52,316,3.978,0.67,8.19,100.9091,1.619,2.918,27.36,0,109.6,13.52,2.38,278.0
"2010-02-02 00:50:00",1644859,15.26,321.9,4.203,0.618,8.34,100.9108,1.623,2.907,27.24,0,109.6,13.52,2.38,283.9
"2010-02-02 00:50:30",1644860,15.56,319.2,4.455,0.594,8.33,100.9108,1.623,2.891,27.29,0,109.6,13.52,2.38,281.2
"2010-02-02 00:51:00",1644861,15.96,320.9,3.161,0.586,8.33,100.9094,1.62,2.891,27.29,0,109.6,13.53,2.38,282.9
"2010-02-02 00:51:30",1644862,16.12,319.9,4.14,0.621,8.54,100.9105,1.623,2.89,27.21,0,109.6,13.53,2.38,281.9
"2010-02-02 00:52:00",1644863,16.32,318.5,4.412,0.686,8.44,100.9102,1.622,2.901,26.91,0,109.6,13.53,2.38,280.5
"2010-02-02 00:52:30",1644864,16.38,316.9,4.626,0.713,8.84,100.9125,1.628,2.921,26.78,0,109.6,13.53,2.39,278.9
"2010-02-02 00:53:00",1644865,16.11,315.7,3.85,0.6,8.51,100.9134,1.63,2.897,26.75,0,109.6,13.53,2.39,277.7
"2010-02-02 00:53:30",1644866,16.7,319.5,4.355,0.799,8.37,100.9117,1.625,2.914,27.01,0,109.6,13.53,2.38,281.5
"2010-02-02 00:54:00",1644867,16.74,317,4.734,0.721,8.57,100.9137,1.631,2.905,27.33,0,109.6,13.53,2.39,279.0
"2010-02-02 00:54:30",1644868,16.41,314.3,4.364,0.708,8.74,100.9154,1.635,2.902,27.02,0,109.6,13.53,2.39,276.3
"2010-02-02 00:55:00",1644869,16.7,316.9,3.523,0.787,8.41,100.9157,1.636,2.907,26.9,0,109.5,13.53,2.39,278.9
"2010-02-02 00:55:30",1644870,17.27,315.2,3.619,0.614,8.44,100.9165,1.638,2.908,26.78,0,109.6,13.53,2.40,277.2
"2010-02-02 00:56:00",1644871,16.32,318.4,4.663,0.809,8.48,100.9168,1.639,2.915,26.77,0,109.6,13.53,2.40,280.4
"2010-02-02 00:56:30",1644872,14.95,315.6,4.39,0.759,8.43,100.9168,1.639,2.91,26.99,0,109.6,13.53,2.40,277.6
"2010-02-02 00:57:00",1644873,17.52,319.4,3.739,0.703,8.43,100.9168,1.639,2.925,26.94,0,109.6,13.53,2.40,281.4
"2010-02-02 00:57:30",1644874,16.23,315.1,4.702,0.945,8.3,100.9168,1.639,2.932,27.05,0,109.6,13.53,2.40,277.1
"2010-02-02 00:58:00",1644875,16.27,317.5,3.887,1.472,8.29,100.9168,1.639,2.91,27.25,0,109.6,13.53,2.40,279.5
"2010-02-02 00:58:30",1644876,17.76,318.5,3.817,0.652,8.46,100.9168,1.639,2.925,26.96,0,109.6,13.53,2.40,280.5
"2010-02-02 00:59:00",1644877,16.99,319.6,3.862,0.763,8.57,100.9168,1.639,2.924,26.81,0,109.6,13.53,2.40,281.6
"2010-02-02 00:59:30",1644878,16.73,315.3,4.332,0.619,8.57,100.9168,1.639,2.917,26.86,0,109.6,13.53,2.40,277.3
"2010-02-02 01:00:00",1644879,16.38,314.9,4.57,0.756,8.69,100.9168,1.639,2.904,26.65,0,109.6,13.53,2.40,276.9
"2010-02-02 01:00:30",1644880,16.36,314,5.048,0.712,8.74,100.9165,1.638,2.915,26.61,0,109.6,13.53,2.40,276.0
"2010-02-02 01:01:00",1644881,15.8,314.7,3.998,0.625,8.62,100.916,1.636,2.911,26.54,0,109.6,13.53,2.39,276.7
"2010-02-02 01:01:30",1644882,15.68,314.8,4.571,0.769,8.7,100.9151,1.634,2.903,26.26,0,109.6,13.53,2.39,276.8
"2010-02-02 01:02:00",1644883,14.79,313.9,5.263,0.597,8.37,100.9162,1.637,2.907,26.38,0,109.6,13.53,2.39,275.9
"2010-02-02 01:02:30",1644884,15.05,314.8,4.377,0.789,8.3,100.9165,1.638,2.916,26.73,0,109.6,13.53,2.40,276.8
"2010-02-02 01:03:00",1644885,16.34,316.6,4.462,0.906,8.24,100.9168,1.639,2.905,26.98,0,109.6,13.53,2.40,278.6
"2010-02-02 01:03:30",1644886,16.85,314.5,4.998,0.633,8.33,100.9165,1.638,2.929,26.95,0,109.6,13.53,2.40,276.5
"2010-02-02 01:04:00",1644887,15.73,317.8,4.523,0.67,8.39,100.9168,1.639,2.912,26.91,0,109.6,13.53,2.40,279.8
"2010-02-02 01:04:30",1644888,14.5,316.4,4.463,0.8,8.39,100.9168,1.639,2.914,26.92,0,109.6,13.53,2.40,278.4
"2010-02-02 01:05:00",1644889,14.61,316.8,3.938,0.725,8.24,100.9168,1.639,2.923,26.93,0,109.6,13.53,2.40,278.8
"2010-02-02 01:05:30",1644890,15.06,314.4,5.386,0.757,8.22,100.9168,1.639,2.909,26.94,0,109.6,13.53,2.40,276.4
"2010-02-02 01:06:00",1644891,16.15,318.2,4.448,1.068,8.28,100.9165,1.638,2.934,26.99,0,109.6,13.53,2.40,280.2
"2010-02-02 01:06:30",1644892,16.73,319.3,5.229,1.132,8.66,100.9168,1.639,2.935,26.64,0,109.6,13.53,2.40,281.3
"2010-02-02 01:07:00",1644893,15.96,315.8,3.417,0.664,8.44,100.9165,1.638,2.937,26.51,0,109.6,13.53,2.40,277.8
"2010-02-02 01:07:30",1644894,14.8,314.4,5.259,0.683,8.49,100.9162,1.637,2.922,26.55,0,109.6,13.53,2.39,276.4
"2010-02-02 01:08:00",1644895,13.31,315.7,4.109,0.717,8.32,100.9162,1.637,2.933,26.67,0,109.6,13.54,2.39,277.7
"2010-02-02 01:08:30",1644896,14.32,313.7,5.43,0.783,8.25,100.9168,1.639,2.93,26.75,0,109.6,13.54,2.40,275.7
"2010-02-02 01:09:00",1644897,13.79,315.9,4.58,0.729,8.01,100.9162,1.637,2.933,26.84,0,109.6,13.54,2.39,277.9
"2010-02-02 01:09:30",1644898,14.58,316.6,4.214,0.969,8.07,100.9126,1.628,2.939,27.04,0,109.6,13.54,2.39,278.6
"2010-02-02 01:10:00",1644899,15.11,317.6,3.981,0.918,7.948,100.9106,1.623,2.92,26.89,0,109.6,13.54,2.38,279.6
"2010-02-02 01:10:30",1644900,15.77,313.1,5.401,0.638,8.3,100.9052,1.609,2.911,26.84,0,109.6,13.54,2.37,275.1
"2010-02-02 01:11:00",1644901,15.05,314.8,4.327,0.591,8.21,100.9018,1.6,2.931,26.63,0,109.5,13.54,2.36,276.8
"2010-02-02 01:11:30",1644902,14.17,315.4,4.163,0.638,8.03,100.9004,1.597,2.924,26.79,0,109.6,13.54,2.35,277.4
"2010-02-02 01:12:00",1644903,14.21,316.4,4.496,0.644,7.973,100.9001,1.596,2.904,26.91,0,109.6,13.54,2.35,278.4
"2010-02-02 01:12:30",1644904,15.08,314.9,4.61,0.926,8.19,100.8939,1.58,2.912,26.95,0,109.6,13.54,2.34,276.9
"2010-02-02 01:13:00",1644905,15.78,313.7,3.647,0.328,8.59,100.8885,1.566,2.913,26.64,0,109.6,13.54,2.32,275.7
"2010-02-02 01:13:30",1644906,15.54,314,4.534,0.694,8.22,100.8891,1.568,2.915,26.58,0,109.6,13.54,2.33,276.0
"2010-02-02 01:14:00",1644907,14.98,315,3.559,0.848,8.03,100.8877,1.564,2.905,26.71,0,109.6,13.54,2.32,277.0
"2010-02-02 01:14:30",1644908,14.43,316.9,3.387,0.948,7.973,100.8854,1.558,2.891,26.6,0,109.6,13.54,2.32,278.9
"2010-02-02 01:15:00",1644909,14.04,316.4,4.698,0.846,8.04,100.8868,1.562,2.914,26.89,0,109.6,13.54,2.32,278.4
"2010-02-02 01:15:30",1644910,15.33,313.4,3.965,1.018,8.23,100.886,1.56,2.899,26.96,0,109.6,13.54,2.32,275.4
"2010-02-02 01:16:00",1644911,15.81,314,4.249,0.889,8.27,100.8848,1.557,2.915,26.6,0,109.6,13.54,2.31,276.0
"2010-02-02 01:16:30",1644912,15.76,314.6,4.185,0.583,8.25,100.8848,1.557,2.921,26.48,0,109.6,13.54,2.31,276.6
"2010-02-02 01:17:00",1644913,14.99,315.1,3.461,0.662,8.22,100.8845,1.556,2.909,26.63,0,109.6,13.54,2.31,277.1
"2010-02-02 01:17:30",1644914,15,314.5,4.825,0.654,8.24,100.8843,1.556,2.919,26.75,0,109.6,13.54,2.31,276.5
"2010-02-02 01:18:00",1644915,15.25,318,4.279,0.83,8.23,100.8846,1.556,2.908,26.79,0,109.6,13.54,2.31,280.0
"2010-02-02 01:18:30",1644916,15.84,318.8,4.359,0.739,8.3,100.8848,1.557,2.896,26.7,0,109.6,13.53,2.31,280.8
"2010-02-02 01:19:00",1644917,15.71,319.5,4.472,0.72,8.46,100.8845,1.556,2.907,26.62,0,109.6,13.53,2.31,281.5
"2010-02-02 01:19:30",1644918,15.99,314.5,4.586,0.778,8.49,100.8862,1.561,2.898,26.45,0,109.6,13.53,2.32,276.5
"2010-02-02 01:20:00",1644919,15.92,317.3,4.73,0.751,8.48,100.8905,1.571,2.929,26.56,0,109.6,13.53,2.33,279.3
"2010-02-02 01:20:30",1644920,14.63,314.7,4.491,0.719,8.35,100.8945,1.582,2.909,26.58,0,109.6,13.53,2.34,276.7
"2010-02-02 01:21:00",1644921,15.92,317,4.367,0.813,8.33,100.8959,1.585,2.909,26.63,0,109.6,13.53,2.34,279.0
"2010-02-02 01:21:30",1644922,15.01,315.7,4.532,0.73,8.37,100.897,1.588,2.923,26.61,0,109.6,13.53,2.35,277.7
"2010-02-02 01:22:00",1644923,14.68,319,4.798,0.846,8.3,100.8998,1.595,2.914,26.7,0,109.6,13.54,2.35,281.0
"2010-02-02 01:22:30",1644924,14.09,315.6,4.382,1.29,8.31,100.9024,1.602,2.915,26.85,0,109.6,13.54,2.36,277.6
"2010-02-02 01:23:00",1644925,13.45,315.8,4.469,0.939,8.22,100.905,1.608,2.929,26.82,0,109.6,13.54,2.37,277.8
"2010-02-02 01:23:30",1644926,13.87,316.6,5.248,0.821,7.923,100.9052,1.609,2.922,27.19,0,109.6,13.54,2.37,278.6
"2010-02-02 01:24:00",1644927,13.16,315.7,4.068,0.638,8.02,100.9033,1.604,2.92,27.16,0,109.6,13.54,2.36,277.7
"2010-02-02 01:24:30",1644928,16.52,316.7,4.751,1.129,8.2,100.9044,1.607,2.922,27.02,0,109.6,13.54,2.36,278.7
"2010-02-02 01:25:00",1644929,16.28,317.3,4.492,0.74,8.23,100.9016,1.6,2.93,26.76,0,109.6,13.54,2.36,279.3
"2010-02-02 01:25:30",1644930,15.78,316.1,4.641,0.77,8.33,100.8979,1.59,2.911,26.55,0,109.6,13.54,2.35,278.1
"2010-02-02 01:26:00",1644931,15.78,319.8,5.577,0.959,8.76,100.8999,1.595,2.929,26.04,0,109.6,13.54,2.35,281.8
"2010-02-02 01:26:30",1644932,15.56,320,4.602,0.861,8.54,100.9061,1.611,2.898,26.07,0,109.6,13.54,2.37,282.0
"2010-02-02 01:27:00",1644933,15.15,317,4.527,0.609,8.26,100.9098,1.621,2.918,26.63,0,109.6,13.54,2.38,279.0
"2010-02-02 01:27:30",1644934,14.51,316.9,4.599,0.814,8.18,100.9121,1.627,2.926,27,0,109.6,13.54,2.38,278.9
"2010-02-02 01:28:00",1644935,13.4,314.3,4.371,0.895,8.08,100.9104,1.622,2.916,27.17,0,109.6,13.54,2.38,276.3
"2010-02-02 01:28:30",1644936,13.51,319.9,3.943,1.275,8.01,100.9118,1.626,2.923,27.28,0,109.6,13.54,2.38,281.9
"2010-02-02 01:29:00",1644937,14.78,315.1,4.942,0.866,8.08,100.9084,1.617,2.919,27.18,0,109.6,13.55,2.37,277.1
"2010-02-02 01:29:30",1644938,16.39,315.4,5.589,0.766,8.12,100.9085,1.617,2.929,27.28,0,109.6,13.55,2.38,277.4
"2010-02-02 01:30:00",1644939,16.26,320,5.183,1.267,7.94,100.9011,1.599,2.903,27.41,0,109.6,13.55,2.36,282.0
"2010-02-02 01:30:30",1644940,18.03,319.9,3.961,0.666,8.23,100.8983,1.591,2.897,27.19,0,109.6,13.55,2.35,281.9
"2010-02-02 01:31:00",1644941,17.57,318.7,3.892,0.647,8.44,100.9003,1.596,2.884,27.23,0,109.6,13.55,2.35,280.7
"2010-02-02 01:31:30",1644942,17.09,318.7,4.77,0.709,8.68,100.9006,1.597,2.892,26.67,0,109.6,13.55,2.35,280.7
"2010-02-02 01:32:00",1644943,17.3,318.5,4.883,0.713,8.7,100.9028,1.603,2.886,26.35,0,109.6,13.55,2.36,280.5
"2010-02-02 01:32:30",1644944,16.38,317.5,4.537,0.594,8.78,100.9031,1.604,2.89,26.41,0,109.6,13.55,2.36,279.5
"2010-02-02 01:33:00",1644945,17.09,316.5,5.033,0.831,8.66,100.9031,1.604,2.893,26.46,0,109.6,13.55,2.36,278.5
"2010-02-02 01:33:30",1644946,15.88,314.8,4.171,0.89,8.51,100.9051,1.609,2.879,26.62,0,109.6,13.55,2.37,276.8
"2010-02-02 01:34:00",1644947,15.93,313.7,4.017,0.659,8.51,100.9046,1.607,2.867,26.81,0,109.6,13.55,2.37,275.7
"2010-02-02 01:34:30",1644948,14.93,315.1,4.311,0.784,8.54,100.9051,1.609,2.882,26.74,0,109.6,13.54,2.37,277.1
"2010-02-02 01:35:00",1644949,14.61,317.3,3.005,0.611,8.32,100.9057,1.61,2.869,26.77,0,109.6,13.54,2.37,279.3
"2010-02-02 01:35:30",1644950,14.58,317.2,4.304,0.73,8.23,100.9051,1.609,2.872,27.01,0,109.6,13.55,2.37,279.2
"2010-02-02 01:36:00",1644951,14.74,320.4,4.146,0.661,8.25,100.906,1.611,2.884,26.99,0,109.6,13.55,2.37,282.4
"2010-02-02 01:36:30",1644952,14.64,315.2,4.168,0.653,8.28,100.904,1.606,2.864,26.73,0,109.6,13.54,2.36,277.2
"2010-02-02 01:37:00",1644953,14.53,314.6,3.409,0.698,8.12,100.9029,1.603,2.862,26.62,0,109.6,13.54,2.36,276.6
"2010-02-02 01:37:30",1644954,14.95,318.3,4.906,0.623,8.15,100.9001,1.596,2.868,26.85,0,109.6,13.55,2.35,280.3
"2010-02-02 01:38:00",1644955,15.13,320.2,4.656,0.638,8.04,100.8967,1.587,2.846,26.74,0,109.6,13.55,2.34,282.2
"2010-02-02 01:38:30",1644956,15.64,318.3,4.486,0.668,8.2,100.8921,1.576,2.852,26.71,0,109.6,13.55,2.33,280.3
"2010-02-02 01:39:00",1644957,15.46,315.4,4.017,0.417,8.32,100.889,1.568,2.845,26.64,0,109.6,13.55,2.33,277.4
"2010-02-02 01:39:30",1644958,16.31,319.4,5.644,1.056,8.15,100.8842,1.555,2.861,26.74,0,109.6,13.55,2.31,281.4
"2010-02-02 01:40:00",1644959,16.02,321.7,5.565,0.727,8.21,100.8808,1.547,2.848,26.88,0,109.6,13.55,2.30,283.7
"2010-02-02 01:40:30",1644960,15.29,319.9,4.179,0.835,8.4,100.8766,1.536,2.846,27.09,0,109.6,13.55,2.29,281.9
"2010-02-02 01:41:00",1644961,15.27,321.7,4.379,0.602,8.31,100.8746,1.531,2.857,27.12,0,109.6,13.55,2.29,283.7
"2010-02-02 01:41:30",1644962,14.13,319.4,4.379,0.88,8.26,100.876,1.534,2.843,27.14,0,109.6,13.55,2.29,281.4
"2010-02-02 01:42:00",1644963,13.45,317.6,4.492,0.801,8.18,100.8757,1.534,2.832,27.22,0,109.6,13.55,2.29,279.6
"2010-02-02 01:42:30",1644964,13.49,321,3.855,0.713,8.16,100.8749,1.532,2.839,27.31,0,109.6,13.55,2.29,283.0
"2010-02-02 01:43:00",1644965,13.82,320.3,4.254,0.739,7.897,100.8743,1.53,2.83,27.41,0,109.6,13.55,2.29,282.3
"2010-02-02 01:43:30",1644966,13.87,315.4,4.757,0.681,8.01,100.876,1.534,2.834,27.47,0,109.6,13.55,2.29,277.4
"2010-02-02 01:44:00",1644967,13.73,316.7,4.541,0.652,7.982,100.8718,1.524,2.818,27.29,0,109.6,13.55,2.28,278.7
"2010-02-02 01:44:30",1644968,13.66,317.2,4.217,0.721,7.964,100.8613,1.497,2.812,27.32,0,109.6,13.55,2.25,279.2
"2010-02-02 01:45:00",1644969,13.44,315.6,3.393,0.54,7.945,100.8576,1.488,2.806,27.3,0,109.6,13.55,2.24,277.6
"2010-02-02 01:45:30",1644970,13.37,315.7,4.409,0.547,7.877,100.8545,1.48,2.794,27.42,0,109.6,13.56,2.24,277.7
"2010-02-02 01:46:00",1644971,13.21,314.5,4.28,0.769,7.831,100.8452,1.456,2.805,27.4,0,109.6,13.55,2.21,276.5
"2010-02-02 01:46:30",1644972,13.01,314.6,4.248,0.818,7.731,100.8446,1.454,2.776,27.36,0,109.6,13.56,2.21,276.6
"2010-02-02 01:47:00",1644973,13,313.8,3.941,0.371,7.852,100.8429,1.45,2.768,27.27,0,109.6,13.56,2.21,275.8
"2010-02-02 01:47:30",1644974,12.98,311.4,4.337,0.649,7.746,100.8449,1.455,2.775,27.35,0,109.6,13.56,2.21,273.4
"2010-02-02 01:48:00",1644975,12.76,311.2,4.218,0.707,7.689,100.8443,1.454,2.775,27.48,0,109.6,13.56,2.21,273.2
"2010-02-02 01:48:30",1644976,12.88,311.7,3.918,0.686,7.594,100.8443,1.454,2.773,27.54,0,109.6,13.56,2.21,273.7